Regional Weather Roundup
Issued by NWS

Home | Current Version | Previous Version | Graphics & Text | Print | Product List | Glossary On
Versions: 1 2 3 4 5 6 7 8 9 10 11 12 13 14 15 16 17 18 19 20 21 22 23 24 25 26 27 28 29 30 31 32 33 34 35 36 37 38 39 40 41 42 43 44 45 46 47 48 49 50
000
ASUS43 KBIS 012201
RWRND

NORTH DAKOTA REGIONAL WEATHER ROUNDUP
NATIONAL WEATHER SERVICE BISMARCK ND
500 PM CDT WED APR 01 2015

NOTE: "FAIR" INDICATES FEW OR NO CLOUDS BELOW 12,000 FEET WITH NO
SIGNIFICANT WEATHER AND/OR OBSTRUCTIONS TO VISIBILITY.


NDZ001>003-009>011-017-012300-
NORTHWEST NORTH DAKOTA

CITY           SKY/WX    TMP DP  RH WIND       PRES   REMARKS
WILLISTON      PTSUNNY   55  22  27 NW25G36   29.66R
MINOT          LGT RAIN  56  28  34 W31G43    29.57R
MINOT AFB      MOSUNNY   55  32  41 NW29G37   29.54R
$$

NDZ018>021-031>035-040>046-012300-
SOUTHWEST NORTH DAKOTA

CITY           SKY/WX    TMP DP  RH WIND       PRES   REMARKS
BISMARCK       PTSUNNY   60  29  30 NW20G36   29.61R
DICKINSON      MOSUNNY   55  22  27 NW32G41   29.66R
GARRISON         N/A     57  27  31 NW36G47   29.59R
HETTINGER ARPT MOSUNNY   56  19  23 W30G40    29.70R
$$

NDZ004>008-012>016-024-026-027-054-012300-
NORTHEAST NORTH DAKOTA

CITY           SKY/WX    TMP DP  RH WIND       PRES   REMARKS
GRAND FORKS    MOSUNNY   63  44  50 NW23G33   29.40R
GRND FRKS AFB  MOSUNNY   60  44  54 NW20G32   29.42R
DEVILS LAKE    CLOUDY    55  39  54 NW33G39   29.47R
$$

NDZ022-023-025-028>030-036>039-047>053-012300-
SOUTHEAST NORTH DAKOTA

CITY           SKY/WX    TMP DP  RH WIND       PRES   REMARKS
FARGO          MOSUNNY   67  39  35 NW26G36   29.42R
JAMESTOWN      PTSUNNY   64  32  30 NW22G39   29.49R
$$



USA.gov is the U.S. government's official web portal to all federal, state and local government web resources and services.